#timestamp,LO_Frequency,Hit,Temp,Hum 
1479096015.4,286047053.2,N,0.0,0.0
1479096035.3,286047051.9,N,0.0,0.0
1479096055.1,286047050.0,N,0.0,0.0
1479096056.0,286047050.0,N,0.0,0.0
1479096075.8,286047053.3,N,0.0,0.0
1479096095.7,286047053.3,N,0.0,0.0
1479096115.5,286047053.5,N,0.0,0.0
1479096135.3,286047051.8,N,0.0,0.0
1479096155.2,286047049.8,N,0.0,0.0
1479096175.0,286047053.7,N,0.0,0.0
1479096175.9,286047053.7,N,0.0,0.0
1479096195.8,286047051.4,N,0.0,0.0
1479096215.6,286047051.8,N,0.0,0.0
1479096235.4,286047051.4,N,0.0,0.0
1479096255.3,286047053.9,N,0.0,0.0
1479096275.1,286047053.9,N,0.0,0.0
1479096295.8,286047049.9,N,0.0,0.0
1479096315.7,286047050.4,N,0.0,0.0
1479096335.5,286047049.5,N,0.0,0.0
1479096355.4,286047050.5,N,0.0,0.0
1479096375.2,286047047.9,N,0.0,0.0
1479096395.0,286047050.3,N,0.0,0.0
1479096395.9,286047050.3,N,0.0,0.0
1479096415.8,286047048.9,N,0.0,0.0
1479096435.6,286047048.5,N,0.0,0.0
1479096455.4,286047048.8,N,0.0,0.0
1479096475.3,286047048.8,N,0.0,0.0
1479096495.1,286047046.0,N,0.0,0.0
1479096515.9,286047047.6,N,0.0,0.0
1479096535.7,286047044.6,N,0.0,0.0
1479096555.5,286047044.9,N,0.0,0.0
1479096575.4,286047047.2,N,0.0,0.0
1479096595.2,286047047.4,N,0.0,0.0
1479096615.0,286047046.8,N,0.0,0.0
1479096615.9,286047046.8,N,0.0,0.0
1479096635.8,286047044.7,N,0.0,0.0
1479096655.6,286047042.9,N,0.0,0.0
1479096675.5,286047105.5,N,0.0,0.0
1479096695.3,286047045.7,N,0.0,0.0
1479096715.1,286047047.4,N,0.0,0.0
1479096735.9,286047047.4,N,0.0,0.0
1479096755.7,286047045.5,N,0.0,0.0
1479096775.5,286047045.0,N,0.0,0.0
1479096795.4,286047045.0,N,0.0,0.0
1479096815.2,286047045.3,N,0.0,0.0
1479096835.0,286047045.9,N,0.0,0.0
1479096836.0,286047045.9,N,0.0,0.0
1479096855.8,286047044.2,N,0.0,0.0
1479096875.6,286047043.9,N,0.0,0.0
1479096895.5,286047041.8,N,0.0,0.0
1479096915.3,286047044.2,N,0.0,0.0
1479096935.1,286047041.7,N,0.0,0.0
1479096955.9,286047040.3,N,0.0,0.0
1479096975.7,286047039.8,N,0.0,0.0
1479096995.6,286047036.1,N,0.0,0.0
1479097015.4,286047040.2,N,0.0,0.0
1479097035.2,286047042.6,N,0.0,0.0
1479097055.1,286047039.8,N,0.0,0.0
1479097056.0,286047039.8,N,0.0,0.0
1479097075.8,286047039.9,N,0.0,0.0
1479097095.6,286047038.1,N,0.0,0.0
1479097115.5,286047039.9,N,0.0,0.0
1479097135.3,286047042.8,N,0.0,0.0
1479097155.1,286047040.1,N,0.0,0.0
1479097175.9,286047040.1,N,0.0,0.0
1479097195.7,286047040.0,N,0.0,0.0
1479097215.6,286047038.7,N,0.0,0.0
1479097235.4,286047039.5,N,0.0,0.0
1479097255.2,286047038.6,N,0.0,0.0
1479097275.1,286047037.8,N,0.0,0.0
1479097276.0,286047037.8,N,0.0,0.0
1479097295.8,286047039.0,N,0.0,0.0
1479097315.6,286047039.8,N,0.0,0.0
1479097335.5,286047040.2,N,0.0,0.0
1479097355.3,286047038.9,N,0.0,0.0
1479097375.2,286047040.6,N,0.0,0.0
1479097395.9,286047039.7,N,0.0,0.0
1479097415.7,286047041.0,N,0.0,0.0
1479097435.6,286047041.0,N,0.0,0.0
1479097455.4,286047040.5,N,0.0,0.0
1479097475.2,286047039.8,N,0.0,0.0
1479097495.1,286047040.6,N,0.0,0.0
1479097496.0,286047040.6,N,0.0,0.0
1479097515.8,286047040.1,N,0.0,0.0
1479097535.7,286047040.2,N,0.0,0.0
1479097555.5,286047040.7,N,0.0,0.0
1479097575.3,286047042.4,N,0.0,0.0
1479097595.2,286047042.6,N,0.0,0.0
1479097615.0,286047041.3,N,0.0,0.0
1479097615.9,286047041.3,N,0.0,0.0
1479097635.8,286047040.1,N,0.0,0.0
1479097655.6,286047042.3,N,0.0,0.0
1479097675.4,286047040.7,N,0.0,0.0
1479097695.3,286047040.7,N,0.0,0.0
1479097715.1,286047038.9,N,0.0,0.0
1479097735.8,286047038.2,N,0.0,0.0
1479097755.7,286047036.6,N,0.0,0.0
1479097775.5,286047039.5,N,0.0,0.0
1479097795.4,286047036.9,N,0.0,0.0
1479097815.2,286047038.2,N,0.0,0.0
1479097835.0,286047035.3,N,0.0,0.0
1479097835.9,286047035.3,N,0.0,0.0
1479097855.8,286047038.2,N,0.0,0.0
1479097875.6,286047038.5,N,0.0,0.0
1479097895.4,286047040.3,N,0.0,0.0
1479097915.3,286047040.3,N,0.0,0.0
1479097935.1,286047039.7,N,0.0,0.0
1479097955.9,286047041.5,N,0.0,0.0
1479097975.7,286047042.5,N,0.0,0.0
1479097995.5,286047038.1,N,0.0,0.0
1479098015.4,286047040.6,N,0.0,0.0
1479098035.2,286047040.3,N,0.0,0.0
1479098055.0,286047038.9,N,0.0,0.0
1479098055.9,286047038.9,N,0.0,0.0
1479098075.8,286047038.7,N,0.0,0.0
1479098095.6,286047037.8,N,0.0,0.0
1479098115.5,286047037.3,N,0.0,0.0
1479098135.3,286047039.1,N,0.0,0.0
1479098155.1,286047041.2,N,0.0,0.0
1479098175.9,286047048.7,N,0.0,0.0
1479098195.7,286047042.7,N,0.0,0.0
1479098215.5,286047034.7,N,0.0,0.0
1479098235.4,286047051.7,N,0.0,0.0
1479098255.2,286047039.4,N,0.0,0.0
1479098275.1,286047040.9,N,0.0,0.0
1479098276.0,286047040.9,N,0.0,0.0
1479098295.8,286047041.0,N,0.0,0.0
1479098315.6,286047041.2,N,0.0,0.0
1479098335.5,286047040.9,N,0.0,0.0
1479098355.3,286047038.5,N,0.0,0.0
1479098375.1,286047040.9,N,0.0,0.0
1479098395.9,286047041.1,N,0.0,0.0
1479098415.7,286047036.0,N,0.0,0.0
1479098435.6,286047036.6,N,0.0,0.0
1479098455.4,286047037.7,N,0.0,0.0
1479098475.2,286047042.5,N,0.0,0.0
1479098495.1,286047040.6,N,0.0,0.0
1479098496.0,286047040.6,N,0.0,0.0
1479098515.8,286047037.9,N,0.0,0.0
1479098535.6,286046991.4,N,0.0,0.0
1479098555.5,286047035.9,N,0.0,0.0
1479098575.3,286047038.0,N,0.0,0.0
1479098595.2,286046979.6,N,0.0,0.0
1479098615.9,286046977.3,N,0.0,0.0
1479098635.7,286046980.4,N,0.0,0.0
1479098655.6,286046982.0,N,0.0,0.0
1479098675.4,286046978.9,N,0.0,0.0
1479098695.3,286047039.4,N,0.0,0.0
1479098715.1,286047038.4,N,0.0,0.0
1479098716.0,286047038.4,N,0.0,0.0
1479098735.8,286047036.6,N,0.0,0.0
1479098755.7,286047037.6,N,0.0,0.0
1479098775.5,286047037.5,N,0.0,0.0
1479098795.3,286047037.7,N,0.0,0.0
1479098815.2,286047036.8,N,0.0,0.0
1479098835.0,286047037.7,N,0.0,0.0
1479098835.9,286047037.7,N,0.0,0.0
1479098855.8,286047039.4,N,0.0,0.0
1479098875.6,286047037.3,N,0.0,0.0
1479098895.4,286047036.7,N,0.0,0.0
1479098915.3,286047035.6,N,0.0,0.0
1479098935.1,286047037.8,N,0.0,0.0
1479098955.8,286047036.4,N,0.0,0.0
1479098975.7,286047042.0,N,0.0,0.0
1479098995.5,286047032.0,N,0.0,0.0
1479099015.4,286047031.2,N,0.0,0.0
1479099035.2,286047038.5,N,0.0,0.0
1479099055.0,286047038.5,N,0.0,0.0
1479099055.9,286047038.5,N,0.0,0.0
1479099075.8,286047038.5,N,0.0,0.0
1479099095.6,286047043.7,N,0.0,0.0
1479099115.4,286047038.1,N,0.0,0.0
1479099135.3,286047041.0,N,0.0,0.0
1479099155.1,286047042.8,N,0.0,0.0
1479099175.9,286047038.5,N,0.0,0.0
1479099195.7,286047039.4,N,0.0,0.0
1479099215.5,286047040.7,N,0.0,0.0
1479099235.4,286047038.5,N,0.0,0.0
1479099255.2,286047037.5,N,0.0,0.0
1479099275.0,286047038.7,N,0.0,0.0
1479099275.9,286047038.7,N,0.0,0.0
1479099295.8,286047039.4,N,0.0,0.0
1479099315.6,286047039.5,N,0.0,0.0
1479099335.5,286047037.0,N,0.0,0.0
1479099355.3,286047039.3,N,0.0,0.0
1479099375.1,286047039.1,N,0.0,0.0
1479099395.9,286047040.0,N,0.0,0.0
1479099415.7,286047040.3,N,0.0,0.0
1479099435.5,286047041.7,N,0.0,0.0
1479099455.4,286047040.9,N,0.0,0.0
1479099475.2,286047039.9,N,0.0,0.0
1479099495.1,286047042.4,N,0.0,0.0
1479099496.0,286047042.4,N,0.0,0.0
1479099515.8,286047040.5,N,0.0,0.0
1479099535.6,286047039.9,N,0.0,0.0
1479099555.5,286047038.4,N,0.0,0.0
1479099575.3,286047042.0,N,0.0,0.0
1479099595.1,286047041.0,N,0.0,0.0
